Wind_Speed
39 39 36 34 35 36 37 36 36 37 37 38 38 38 37 36 35 35 38 39 41 45 43 42 45 45 41 37 35 37 39 36 35 36 35 36 38 39 40 40 41 42 43 45 45 45 44 42 42 43 43 44 43 42 41 40 39 40 41 41 42 43 44 44 45 45 46 47 48 49 50 50 51 51 53 54 55 56 57 57 56 56 55 56 58 60
42 41 37 37 39 38 38 38 37 38 38 40 40 40 39 39 39 39 39 41 43 47 46 45 48 46 42 40 37 39 40 36 36 37 35 36 39 39 40 41 41 43 45 46 47 46 45 44 44 45 45 45 44 43 42 40 40 40 41 42 43 44 44 44 44 45 46 47 49 50 50 51 51 52 54 55 55 56 57 56 56 56 57 58 61 63
44 42 38 39 41 40 39 39 38 39 40 41 42 42 41 41 43 43 42 43 46 49 49 49 52 49 44 42 37 38 41 38 36 37 35 35 38 39 40 41 42 44 47 48 47 47 47 46 45 46 47 45 44 43 43 42 42 41 41 42 44 44 44 44 44 45 47 48 49 50 50 50 51 53 54 55 55 56 56 56 57 57 59 62 64 66
46 43 41 41 42 41 41 40 40 41 42 43 43 44 43 43 45 46 45 46 48 51 52 53 55 51 48 45 37 35 40 41 38 35 34 35 37 38 39 40 43 46 48 49 48 48 48 47 46 47 46 45 45 44 44 44 43 42 42 43 44 44 44 44 45 46 47 48 49 50 50 51 52 53 53 54 55 56 56 57 58 59 62 65 68 69
46 44 43 43 42 43 43 42 42 42 44 45 45 44 44 45 46 48 49 50 51 52 53 55 57 54 52 48 38 33 36 41 42 36 34 36 36 36 38 40 43 47 49 49 48 48 48 47 47 46 46 45 45 45 44 44 43 42 42 43 43 43 43 44 45 47 48 49 50 50 51 52 52 53 53 54 55 56 57 58 60 62 65 68 70 70
46 44 45 44 44 45 45 44 43 44 46 47 46 44 45 47 48 50 51 53 54 55 55 56 56 56 56 52 43 37 35 36 42 41 37 37 35 35 37 40 44 47 49 49 49 49 48 47 47 47 45 44 44 44 44 44 42 42 42 41 41 41 43 44 46 48 49 50 51 52 52 53 53 53 54 55 56 57 58 59 62 65 68 70 71 71
46 44 45 45 45 46 45 44 43 45 48 49 47 45 46 48 49 51 52 54 56 58 58 55 54 58 60 55 46 43 38 34 38 42 40 37 36 36 38 41 43 46 49 50 50 50 48 47 47 47 44 43 43 44 43 42 41 40 40 40 40 41 43 45 47 49 50 51 52 53 53 53 53 54 55 56 57 58 59 61 64 68 70 71 73 73
45 44 44 45 46 46 45 44 44 46 48 50 48 47 48 48 50 52 53 55 56 60 62 55 53 60 63 56 49 45 40 34 34 39 42 40 38 37 38 41 43 47 49 51 51 50 49 48 48 46 43 42 43 42 41 39 38 39 39 40 41 43 44 46 49 50 51 52 52 52 53 53 54 55 56 58 58 60 61 64 67 70 72 74 75 75
45 45 45 45 46 46 45 45 45 46 48 50 50 49 49 49 52 54 55 57 57 61 64 56 52 60 63 59 54 47 41 36 34 37 41 41 40 39 39 41 44 47 50 51 53 52 50 50 49 45 42 42 42 41 40 38 38 40 40 41 42 44 46 48 50 51 51 52 52 52 53 54 55 56 58 58 59 61 63 66 69 72 74 76 76 76
46 46 46 46 46 45 45 46 47 48 49 50 50 50 50 51 53 55 57 58 59 64 64 56 53 59 64 60 53 48 43 39 38 39 40 40 41 41 41 42 44 47 49 52 54 54 52 51 48 44 42 42 42 40 39 38 39 41 42 43 44 46 48 50 51 50 50 51 52 52 53 55 56 57 58 59 60 62 65 67 71 74 76 77 78 78
46 46 46 46 46 46 46 47 48 48 49 49 49 50 51 53 56 57 59 59 61 65 63 57 56 60 66 61 52 49 45 41 42 42 41 41 42 41 41 42 44 47 50 54 56 55 54 52 47 43 42 42 42 40 39 40 41 43 44 45 46 48 50 50 50 50 50 51 51 52 54 55 57 58 58 60 62 64 67 69 72 75 78 79 79 80
46 46 46 46 46 46 46 47 47 48 49 49 50 51 52 56 58 59 61 60 63 66 62 58 58 61 66 60 52 51 47 45 47 44 42 43 42 41 41 43 46 48 52 56 57 56 54 51 46 43 43 43 41 40 41 42 43 44 46 47 49 50 50 49 49 50 50 50 51 52 54 56 57 57 59 61 63 66 68 71 74 77 80 80 80 81
46 46 46 46 46 46 46 47 48 48 49 50 51 52 54 57 59 60 62 62 64 65 62 60 61 63 64 58 54 51 47 50 53 46 44 44 42 41 42 46 49 50 53 56 57 56 54 51 46 43 44 43 42 42 43 44 45 46 48 49 51 51 49 49 49 50 50 50 52 53 55 56 57 58 60 62 64 67 70 73 76 78 80 80 81 84
49 49 48 47 46 46 47 47 49 50 51 52 53 53 55 57 58 60 62 63 65 64 61 61 63 64 62 57 55 53 49 54 55 47 45 44 41 42 44 48 51 50 53 55 55 56 54 51 48 45 45 45 45 45 46 47 47 48 49 51 51 49 49 49 49 49 50 51 52 54 55 56 57 59 61 64 66 69 72 75 77 80 81 80 82 86
52 52 51 49 48 50 51 50 51 53 54 56 56 56 57 57 58 60 62 63 64 63 62 64 65 64 61 58 59 56 52 56 56 48 45 44 43 44 46 50 50 50 52 55 56 56 54 52 50 47 46 47 47 47 48 49 49 50 51 50 50 49 49 49 49 50 51 52 53 54 55 57 59 61 63 66 69 71 74 77 79 81 81 82 85 87
54 56 54 53 54 54 54 53 53 54 56 57 57 58 58 57 57 60 61 61 61 62 63 65 65 62 59 60 62 59 54 56 56 48 46 46 45 45 47 49 49 51 55 57 57 57 55 53 50 47 47 48 48 49 49 50 50 51 51 49 49 49 49 49 50 50 51 52 54 55 56 58 60 63 65 68 71 73 76 79 80 80 82 85 87 84
55 56 56 57 57 56 55 53 53 54 55 56 55 55 55 55 56 58 60 58 58 61 62 62 63 61 60 63 65 59 53 54 53 49 47 47 44 43 46 48 49 53 57 58 58 58 55 52 48 47 47 48 49 49 50 51 51 51 50 49 49 49 49 50 50 51 52 54 55 56 57 60 62 64 67 70 73 75 78 80 80 82 85 87 85 79
55 57 57 58 59 58 56 54 54 54 54 54 53 53 53 55 56 56 58 58 59 63 64 61 63 64 65 68 66 58 52 52 52 49 47 44 42 43 47 49 52 57 59 58 58 57 53 49 46 47 48 49 49 50 51 52 52 51 50 50 50 50 50 51 51 52 53 55 56 57 59 62 64 66 69 72 74 77 79 80 82 85 87 85 80 75
56 58 59 59 60 59 57 57 58 57 56 56 55 54 56 57 58 57 58 60 62 65 67 65 65 68 71 69 62 54 50 50 50 48 46 44 43 47 50 52 57 59 58 58 58 55 50 47 47 47 49 49 50 51 52 53 53 52 51 50 50 50 51 51 52 53 54 55 57 59 61 63 66 68 71 73 76 78 79 81 84 86 85 81 76 72
58 60 61 61 62 62 62 63 62 60 60 60 59 60 61 61 61 61 62 64 65 66 68 68 67 68 67 62 56 50 46 45 46 47 46 45 46 50 52 55 59 58 58 58 57 52 48 47 48 48 49 50 51 53 54 54 53 51 50 50 51 51 51 51 52 53 55 57 59 61 63 65 67 70 72 75 77 78 81 83 85 85 82 77 74 71
60 61 63 63 65 67 67 65 64 63 64 64 64 64 65 64 64 65 67 68 67 67 69 71 71 67 61 56 51 47 44 43 44 47 48 47 47 50 53 56 57 56 57 57 54 50 48 48 49 49 50 51 53 54 54 53 51 50 50 51 50 50 51 51 52 54 56 59 61 62 64 66 68 71 74 76 77 80 82 84 84 83 79 75 72 72
64 63 63 63 66 69 68 67 68 69 68 68 68 67 66 66 67 67 69 69 68 69 70 73 76 67 56 52 49 46 46 44 42 47 51 50 49 52 55 56 56 56 57 55 51 48 49 49 50 50 51 52 54 54 53 52 50 50 50 50 50 51 51 51 53 56 59 60 62 63 65 67 70 72 75 76 79 81 83 83 83 81 77 74 72 73
66 64 63 63 65 67 67 69 71 72 71 71 70 68 69 69 68 67 67 67 68 71 73 77 80 70 54 49 48 48 48 45 43 49 53 53 52 54 56 56 57 57 57 53 50 49 50 51 50 51 52 53 54 54 52 50 50 50 50 50 51 51 50 52 55 58 60 61 63 64 66 69 71 74 75 77 80 81 82 82 81 79 75 74 73 74
65 63 63 63 64 66 68 70 72 73 72 71 69 68 70 71 68 66 67 69 71 72 74 78 80 70 55 48 48 48 47 45 45 50 53 53 53 54 55 56 58 58 57 53 50 51 51 51 50 52 54 55 55 53 51 50 50 50 50 51 52 51 51 54 57 59 61 62 64 65 67 70 72 75 76 78 80 81 82 82 80 77 75 75 75 75
65 64 63 63 65 68 69 69 69 69 68 68 68 69 70 68 66 68 69 71 73 71 72 76 77 68 56 50 50 48 45 45 47 50 52 52 53 53 54 57 58 58 56 52 51 52 51 51 51 53 55 55 54 52 51 51 50 49 51 52 52 51 53 57 59 60 62 63 64 66 69 71 73 75 77 78 80 81 81 81 79 77 76 76 76 77
66 66 66 67 70 72 70 67 67 67 68 69 67 66 65 63 64 67 66 69 74 72 72 74 73 67 57 52 53 48 44 45 48 50 51 52 52 54 55 57 57 56 54 52 52 53 51 51 54 56 56 55 53 51 51 51 50 50 53 53 51 53 56 58 60 61 63 64 66 68 70 73 75 76 77 78 80 80 80 80 79 78 77 77 78 78
69 71 71 71 73 73 69 65 65 67 68 67 64 62 61 60 61 63 65 70 74 74 74 70 67 67 61 56 55 50 45 47 49 49 51 52 54 56 55 55 54 54 53 53 53 52 52 53 56 57 56 54 51 51 51 51 50 52 53 52 52 56 58 59 61 62 64 65 67 69 72 74 76 76 77 79 80 80 79 79 79 78 78 78 79 79
74 75 72 71 72 71 69 66 64 66 67 66 64 64 62 61 61 62 67 71 71 74 76 67 64 69 65 59 57 52 47 48 49 49 51 55 56 56 55 55 54 54 54 53 52 52 53 56 58 58 56 53 51 51 51 51 51 53 53 52 55 58 59 60 62 63 65 66 68 71 73 75 75 76 78 79 79 79 78 79 79 79 79 79 80 80
75 76 72 71 73 72 70 69 68 69 68 67 66 65 62 62 62 64 68 68 67 74 78 71 68 71 66 61 59 51 45 47 50 51 53 55 55 54 56 56 55 56 55 54 53 53 55 58 59 57 55 52 51 51 51 51 53 53 53 54 58 60 60 62 63 64 66 68 70 73 74 75 75 76 78 79 78 78 78 79 79 79 79 80 80 81
74 75 70 70 74 73 70 68 68 69 68 67 65 63 60 61 62 65 66 64 67 76 79 75 73 71 66 63 57 47 45 51 54 53 53 54 54 56 58 57 56 56 55 54 53 55 56 58 58 55 52 51 51 51 51 52 53 53 53 56 59 60 61 63 64 65 67 69 71 73 74 74 75 77 79 78 77 77 78 79 79 79 79 80 81 82
72 71 69 69 73 73 69 67 67 68 68 67 64 61 61 61 63 66 67 66 68 74 75 74 75 73 67 60 52 47 50 55 55 54 54 55 55 57 59 58 56 56 54 54 55 57 58 58 55 52 51 52 52 52 52 54 53 53 55 58 60 61 62 63 65 67 69 70 72 73 73 74 76 77 78 77 77 77 78 78 78 78 79 80 82 83
72 72 71 71 75 76 71 68 68 68 68 68 66 63 63 63 64 67 69 69 69 70 71 73 76 74 65 55 52 53 56 58 57 57 57 56 56 59 60 58 57 56 55 55 57 58 57 55 52 51 52 53 53 53 55 55 53 53 57 60 61 61 63 64 66 68 69 71 72 72 73 75 76 77 78 77 77 77 77 78 78 78 79 80 82 82
73 74 75 74 77 78 73 69 69 68 68 71 71 68 66 64 66 71 72 70 69 70 72 74 74 70 61 54 54 57 60 61 59 58 57 57 58 59 59 58 58 57 57 58 59 57 55 52 50 51 53 53 54 55 56 55 53 55 59 61 61 62 63 65 66 68 70 71 71 72 74 75 76 77 77 76 76 76 77 77 77 78 79 80 81 81
69 71 72 72 74 76 72 69 68 70 73 75 72 68 67 68 72 77 77 75 72 69 69 69 66 61 56 55 57 60 61 59 58 58 59 61 62 60 57 57 59 60 60 61 59 55 52 50 50 52 53 54 55 56 56 54 55 58 61 61 61 63 64 65 67 69 70 71 72 73 74 75 75 77 77 76 76 76 76 76 76 78 79 80 81 80
67 68 70 71 72 73 71 68 70 75 75 71 67 66 68 73 76 79 78 74 67 61 60 61 59 57 57 57 58 58 57 58 62 64 63 64 63 59 57 59 61 62 62 60 57 54 52 51 51 53 54 55 56 56 55 55 57 60 61 61 62 63 64 65 67 69 70 71 72 73 74 74 75 76 76 75 75 75 75 75 76 78 79 80 80 79
69 70 72 73 73 73 72 72 74 75 71 67 67 68 70 73 74 73 73 69 62 58 60 60 59 60 61 58 56 56 57 64 69 68 64 64 63 59 60 63 62 61 60 58 57 54 52 51 52 54 54 55 55 54 55 56 59 60 61 62 63 63 64 66 67 69 70 72 73 74 74 74 75 75 75 75 75 74 74 75 76 78 79 79 79 78
72 73 73 75 76 75 74 73 73 72 70 69 68 66 67 69 68 66 70 70 64 63 64 61 60 61 60 57 57 59 63 71 74 67 60 62 63 62 64 65 63 61 61 59 57 54 51 52 53 53 53 54 54 55 56 58 60 61 62 63 64 64 65 66 68 69 70 72 73 73 74 74 74 74 74 74 74 73 74 75 77 78 78 78 77 77
73 74 74 76 77 75 74 73 72 74 75 72 68 66 68 69 66 64 69 70 64 61 59 56 56 59 59 59 62 63 65 70 70 63 58 61 66 67 66 65 64 64 62 59 57 53 50 50 51 52 53 53 54 57 58 59 60 61 63 64 65 65 66 67 68 69 71 72 73 73 73 73 73 73 73 73 73 72 73 75 77 78 78 77 76 76
75 74 74 75 76 75 75 77 77 79 79 76 70 67 67 69 66 65 70 71 63 56 53 53 54 55 56 57 58 58 61 65 65 62 60 63 67 67 66 65 65 64 61 59 56 53 50 50 51 52 53 55 56 58 59 60 61 62 63 64 65 66 68 68 68 69 71 72 73 74 74 72 72 72 72 72 72 72 73 75 76 77 78 77 75 75
79 74 73 75 76 75 76 78 79 80 79 75 70 67 67 67 64 63 69 71 60 52 53 55 55 55 54 54 53 53 55 59 60 60 60 60 62 62 63 63 63 63 62 61 59 56 52 51 53 55 56 57 58 59 60 61 61 62 64 66 67 68 68 68 68 70 72 72 72 73 73 71 70 71 71 71 71 72 74 75 76 77 77 76 75 74
79 76 76 78 80 79 79 80 80 81 79 73 69 68 67 65 64 66 70 65 55 50 54 55 54 53 53 55 57 57 56 57 56 54 53 54 56 56 57 58 58 58 60 61 61 60 57 56 59 61 61 60 59 60 62 62 62 63 65 67 68 68 68 68 69 71 72 72 72 72 71 70 70 70 70 71 71 73 74 75 75 76 75 74 73 73
79 78 79 80 81 82 83 83 85 86 81 71 69 70 69 69 71 72 70 63 58 61 64 61 58 58 57 58 59 56 55 56 55 53 52 51 50 48 48 49 50 52 55 58 60 61 62 63 66 66 64 61 61 62 63 63 63 64 66 67 67 68 69 68 68 69 71 71 71 70 69 69 70 70 71 71 72 73 74 74 74 74 74 73 72 72
81 81 84 86 85 85 87 89 90 89 80 71 72 77 79 77 74 72 73 71 69 72 74 72 68 66 63 62 60 56 53 52 51 51 51 50 49 49 51 54 56 59 62 63 64 63 63 65 67 66 63 61 62 63 63 64 65 65 65 67 68 69 70 68 67 68 70 70 69 68 68 69 70 71 71 72 72 73 73 73 73 73 72 72 71 72
89 89 91 93 93 92 94 97 97 93 85 80 82 86 86 83 80 79 83 83 77 76 79 77 71 66 63 62 62 63 61 58 56 56 56 57 58 61 63 66 68 69 69 68 66 64 64 66 67 64 62 62 63 63 64 65 65 64 65 67 68 69 69 68 68 68 68 67 67 68 69 70 71 72 72 72 72 71 71 71 71 71 71 70 70 71
96 95 94 96 96 96 96 97 96 94 90 88 89 89 90 91 91 90 90 89 85 84 84 79 70 65 65 65 66 66 66 66 67 68 68 69 70 72 72 73 73 73 72 70 67 65 64 65 63 61 61 63 63 64 64 65 63 63 66 67 68 69 69 68 67 66 66 66 68 69 70 71 72 71 71 71 70 69 68 69 69 70 70 70 70 71
97 95 95 97 98 99 100 99 97 95 93 91 91 90 91 92 94 93 92 91 88 85 82 77 68 63 64 68 68 69 70 71 72 74 76 77 76 75 74 73 73 73 72 70 67 64 62 61 60 60 62 64 64 64 64 63 62 64 66 66 68 70 68 66 66 66 66 68 69 70 71 71 71 70 70 68 67 66 66 67 68 68 69 69 70 72
98 97 98 99 100 102 104 102 99 96 93 91 91 91 90 90 90 90 88 85 80 76 75 75 70 63 62 65 67 70 72 73 72 73 74 74 73 72 71 72 71 70 69 67 64 62 61 62 63 64 64 64 64 64 63 63 64 65 65 65 68 69 67 65 65 67 68 69 70 70 71 70 69 69 67 65 64 64 65 66 67 67 68 69 70 72
100 100 100 100 100 101 102 98 93 91 89 87 86 86 86 84 83 82 79 76 72 71 72 73 71 68 65 65 68 71 73 74 74 73 71 70 69 68 69 71 70 67 65 64 63 63 64 65 67 66 65 64 64 64 64 65 66 65 64 66 69 68 66 65 67 69 69 69 70 69 68 68 67 66 64 62 61 61 62 64 66 67 68 69 71 72
98 97 97 96 95 96 95 90 86 87 87 85 84 84 83 81 79 77 76 74 73 73 75 75 75 74 72 73 75 78 79 78 77 74 70 67 66 66 68 69 68 66 63 63 63 65 66 68 68 66 64 64 65 66 67 66 65 63 64 67 69 67 66 67 69 69 69 69 69 67 66 65 64 62 60 59 58 59 60 62 64 66 68 70 72 74
96 100 102 102 103 105 103 98 95 96 96 94 91 89 87 84 80 78 77 77 77 79 80 82 83 84 83 83 84 84 83 80 78 75 71 67 66 67 68 69 68 66 64 63 66 67 68 69 68 65 64 65 66 67 66 64 61 61 64 67 67 66 67 68 68 68 68 68 66 65 64 63 61 59 56 56 56 58 60 61 63 65 67 70 72 74
100 104 106 107 109 110 108 103 99 97 97 98 96 91 87 84 83 82 83 84 87 89 90 93 95 95 93 90 87 85 83 80 79 77 74 70 69 69 69 67 66 65 65 66 68 68 67 67 66 64 63 64 65 64 63 61 60 61 64 66 67 67 68 67 67 67 67 66 64 62 61 60 58 55 53 53 54 56 58 61 63 65 67 69 71 73
Wind_Direction
282 283 286 290 288 287 289 291 290 290 291 291 291 291 292 292 292 292 292 293 294 294 296 298 298 301 305 307 307 303 302 306 306 303 305 305 304 303 305 308 310 307 304 302 301 302 304 306 307 308 308 307 306 304 302 300 297 294 293 293 294 294 294 293 293 293 293 293 293 294 294 295 296 296 297 297 297 298 298 299 299 300 300 300 300 299
280 281 286 287 285 287 290 290 290 291 291 291 291 291 292 293 292 291 292 293 293 293 295 297 296 300 304 305 307 304 302 306 305 302 304 303 301 301 304 307 307 305 303 301 301 303 304 305 306 307 307 306 304 303 302 300 298 295 293 292 294 295 294 294 294 294 294 294 294 295 295 295 296 297 298 298 298 299 300 300 300 301 302 302 300 298
280 281 285 285 286 289 289 290 291 291 291 291 290 291 293 293 292 292 293 293 292 293 295 297 297 300 303 303 307 307 304 305 303 301 303 299 298 301 304 305 305 304 302 301 302 303 303 303 304 304 305 304 303 301 301 300 299 296 294 294 294 295 294 293 293 293 294 295 295 296 296 296 298 299 299 299 300 301 301 301 302 302 303 302 300 297
281 283 284 284 286 288 288 289 290 290 290 290 290 291 293 293 293 293 294 293 292 293 295 297 298 302 303 302 306 307 304 303 301 301 302 299 298 302 303 304 303 302 300 300 301 300 300 302 303 303 303 303 301 300 300 300 299 296 295 295 294 293 293 292 292 293 295 296 297 298 298 299 300 300 300 301 302 302 302 302 303 304 303 302 299 296
281 283 284 285 286 286 287 288 289 290 290 289 289 291 293 293 293 294 294 293 292 293 295 297 300 304 304 303 306 306 302 300 301 306 307 303 302 302 302 301 299 298 297 297 298 298 299 300 302 303 303 302 300 300 300 299 298 296 295 294 294 293 292 292 293 295 296 298 299 300 301 301 302 302 303 303 303 304 304 305 305 304 302 300 297 295
281 283 284 285 285 285 285 287 289 289 288 287 289 291 292 292 293 293 293 293 293 293 295 296 301 305 303 303 308 308 304 300 303 309 310 305 304 302 299 297 296 295 295 296 296 296 298 300 303 304 303 301 300 299 299 298 297 295 294 294 293 293 292 293 295 296 298 300 301 302 303 303 303 304 304 304 305 306 306 306 304 302 300 298 296 295
281 283 283 283 284 284 285 287 288 287 287 287 289 290 291 292 293 292 292 293 293 295 295 296 302 304 301 302 308 308 305 304 306 309 309 307 305 302 299 296 295 295 295 295 296 297 298 301 304 305 304 301 300 299 298 297 296 294 294 294 294 294 294 295 297 298 300 301 302 303 304 304 305 305 305 306 307 307 307 305 303 300 298 297 296 296
282 282 282 282 283 284 285 287 287 286 286 287 289 290 291 292 291 291 291 291 292 294 294 296 301 301 298 301 305 305 305 307 307 307 307 308 306 303 301 299 297 296 296 297 297 298 300 302 305 306 303 302 301 299 298 297 295 294 294 294 294 295 296 297 298 299 300 301 302 303 304 305 305 306 306 307 307 307 305 303 301 300 298 297 297 298
282 282 282 282 282 283 285 286 285 285 285 287 289 291 291 290 289 289 289 290 292 293 294 297 299 297 297 299 302 305 307 308 308 305 304 305 305 305 304 301 299 298 298 298 298 299 301 303 305 305 303 302 301 299 298 296 294 293 293 294 295 295 297 298 299 300 301 301 302 304 305 305 306 306 306 307 306 304 302 301 300 300 298 298 298 299
281 282 282 281 282 283 284 283 283 284 285 287 289 289 289 288 288 288 287 289 291 291 295 299 297 296 296 296 301 307 308 308 310 307 304 305 306 307 306 303 301 299 299 299 299 300 302 304 306 304 302 301 300 298 296 294 293 293 293 294 294 296 298 299 299 300 300 301 303 304 305 305 306 306 306 306 304 302 301 301 300 300 299 298 299 300
280 280 280 281 282 281 281 282 283 284 285 286 287 286 286 287 286 286 286 288 289 291 295 297 296 296 294 295 304 309 306 308 308 307 307 307 307 308 307 304 302 301 301 299 299 300 302 305 306 302 300 301 299 297 295 294 294 293 293 293 294 296 298 299 299 299 301 302 303 304 305 306 306 306 305 304 302 302 302 301 301 300 299 298 300 302
279 278 279 279 279 280 281 282 283 283 284 284 284 284 284 284 283 284 285 286 287 290 294 295 295 294 291 296 307 307 305 307 306 307 310 309 308 309 308 305 303 302 300 298 298 300 302 305 304 299 298 299 298 296 295 294 293 292 292 293 295 297 298 298 298 300 302 303 304 304 306 306 306 304 303 302 302 302 302 301 301 299 298 299 301 303
278 278 278 278 280 281 281 282 282 281 281 281 281 281 281 281 282 283 285 287 287 289 293 294 293 291 292 300 305 303 304 306 305 309 313 309 308 309 308 305 303 301 298 296 297 299 301 304 302 297 297 298 296 295 294 294 293 292 292 293 295 296 297 297 299 301 302 303 304 305 306 305 304 303 302 301 301 301 301 301 300 299 299 300 302 303
279 279 280 281 281 281 281 280 280 280 280 279 279 279 279 280 282 284 287 289 288 290 293 292 290 290 295 302 301 299 303 304 304 310 312 309 309 309 308 304 300 298 296 295 296 298 301 302 299 296 296 296 295 294 293 293 292 292 293 294 295 296 296 297 300 302 302 303 305 305 305 304 302 301 301 301 301 301 301 301 300 299 300 301 302 303
282 281 281 283 282 280 280 279 279 280 280 280 280 280 280 283 284 286 288 288 289 291 290 289 289 292 297 300 297 297 302 304 305 310 311 309 310 310 307 302 298 296 294 294 296 299 301 301 298 295 294 294 293 293 292 292 293 293 293 294 294 294 296 298 301 302 303 304 305 305 304 303 301 301 301 301 301 302 301 300 300 300 301 302 303 304
283 282 282 283 281 280 280 280 281 282 281 281 282 282 285 288 288 287 287 288 290 290 288 288 290 292 295 295 292 295 303 304 303 308 310 308 311 311 304 298 297 295 293 294 297 300 301 298 296 294 292 292 291 291 292 293 293 293 293 293 294 294 297 299 301 302 304 305 305 304 303 301 300 300 301 301 301 302 301 300 300 302 303 303 304 305
283 282 281 281 280 280 280 281 282 281 281 282 283 286 289 289 287 286 287 288 288 288 288 290 291 292 293 291 290 296 303 302 303 307 307 307 312 309 299 296 296 293 291 294 298 300 299 296 294 291 290 290 290 291 292 293 293 293 293 293 293 296 299 301 302 304 305 305 304 303 302 300 299 300 301 301 301 301 301 301 302 303 303 304 305 306
282 281 280 279 280 280 281 282 282 281 281 283 285 288 288 286 284 285 286 286 287 287 288 289 291 292 290 289 293 301 304 303 304 306 305 309 311 304 297 297 294 291 292 296 298 299 298 295 292 289 289 289 290 291 293 294 294 293 292 293 294 297 300 302 303 305 305 305 304 302 300 299 300 300 301 301 301 301 301 302 303 304 304 305 306 306
282 281 279 279 280 281 283 283 282 282 285 287 287 287 285 283 283 283 284 286 286 286 287 290 291 290 288 290 296 302 304 305 306 305 304 307 307 302 299 297 292 292 295 298 299 300 299 295 290 289 289 290 291 293 294 294 294 293 292 293 296 299 301 303 304 305 305 305 302 300 299 299 300 301 301 301 301 302 302 303 304 304 304 305 306 306
280 279 278 280 282 283 282 282 283 286 288 287 286 284 283 283 283 284 284 285 285 286 289 291 290 288 289 293 298 302 305 307 306 301 300 303 304 301 298 293 291 294 297 298 299 299 297 292 289 289 290 291 293 294 294 294 293 292 292 294 297 300 302 304 305 305 305 304 301 299 299 300 301 301 301 301 302 303 304 304 304 304 304 306 306 306
277 276 277 279 281 281 281 282 284 284 283 282 282 282 282 283 284 284 283 284 286 288 289 289 287 288 292 297 301 305 307 307 303 298 299 304 303 298 293 290 292 295 295 296 297 297 293 290 289 290 291 292 293 294 294 293 292 292 293 296 298 301 303 304 304 305 304 302 300 299 300 301 301 301 301 302 302 304 304 304 304 304 305 305 305 306
277 275 275 277 278 279 280 281 281 279 279 280 279 280 281 282 282 282 282 285 287 287 286 284 284 288 295 299 304 307 306 305 301 298 301 304 300 294 292 292 294 294 294 295 296 294 290 289 289 291 292 293 294 294 293 292 291 292 294 297 300 302 303 303 305 305 304 301 299 299 300 301 301 301 301 302 304 304 304 304 304 304 305 305 305 305
277 275 275 275 276 277 278 278 277 277 277 278 279 282 284 282 282 282 283 284 283 283 283 281 281 287 296 301 303 305 304 302 300 300 302 301 296 293 294 295 295 295 294 294 294 290 288 288 289 290 292 293 294 293 291 290 291 293 296 298 300 301 302 304 305 304 302 300 299 300 301 301 301 301 302 303 304 304 304 304 304 304 304 305 305 305
275 275 275 274 274 275 277 277 276 276 277 278 283 286 285 284 283 282 282 282 281 283 284 281 281 289 301 304 302 302 301 300 300 301 300 296 293 294 295 295 295 293 293 294 291 287 287 287 289 290 292 293 293 291 289 289 291 294 297 300 300 301 302 304 305 303 301 299 299 300 300 300 300 301 303 304 305 304 304 305 305 304 304 304 305 305
274 274 274 274 274 276 278 278 278 279 280 282 284 284 282 282 281 279 281 282 282 285 284 280 283 294 304 305 301 301 300 299 301 300 296 292 293 293 293 293 292 292 293 292 289 286 286 287 288 290 291 291 290 287 287 290 293 295 298 300 300 300 302 304 303 302 300 299 299 300 300 300 301 302 303 304 305 305 305 305 305 304 303 304 305 305
275 275 274 274 275 277 279 281 282 282 280 280 280 279 280 280 280 280 282 282 282 284 283 282 289 300 304 302 301 302 301 299 300 296 293 291 291 290 290 291 291 290 290 288 286 285 285 286 288 289 290 289 287 285 287 291 293 296 299 299 299 300 303 303 302 300 299 299 299 300 300 300 301 302 303 305 305 305 305 305 305 304 303 304 305 305
273 272 272 273 274 276 278 281 281 279 276 277 278 279 280 282 282 282 281 281 283 284 283 287 297 301 300 299 301 301 299 298 297 294 291 289 288 288 290 289 288 287 287 285 283 283 284 285 287 288 289 287 284 285 288 291 293 296 298 298 299 301 303 302 301 300 299 299 300 300 300 300 301 302 304 305 305 305 305 305 305 304 303 304 305 306
270 270 271 273 274 275 277 279 278 275 274 277 279 280 281 282 282 281 280 283 285 283 285 294 300 296 296 299 300 300 299 296 293 289 287 286 288 289 288 286 285 285 285 283 282 282 283 284 286 287 287 285 283 286 289 291 294 296 297 297 300 302 302 301 300 300 300 300 300 300 300 300 301 302 304 305 305 305 305 305 305 304 303 304 305 306
268 269 271 272 273 274 275 277 276 275 276 278 278 279 280 280 279 279 279 283 287 288 291 297 295 291 295 299 299 301 299 291 286 285 285 286 287 286 284 284 286 286 284 282 281 282 282 283 285 287 285 282 283 286 289 292 294 295 295 298 300 301 301 300 300 300 300 300 299 299 299 300 301 303 304 305 306 306 305 305 305 305 304 305 306 306
269 271 272 273 273 273 274 276 276 275 275 275 275 276 278 279 278 278 281 286 291 291 292 294 292 290 294 299 300 299 291 285 284 285 285 285 284 283 283 285 287 286 284 282 281 280 281 283 285 284 282 280 282 286 290 293 294 294 295 299 300 300 300 300 300 300 300 299 299 299 300 301 302 303 305 306 306 306 305 305 305 305 305 306 306 307
273 274 275 275 275 273 274 275 274 273 273 272 271 273 278 279 278 281 286 289 290 290 290 291 290 291 295 298 295 289 285 284 285 285 283 283 283 282 282 285 287 286 283 281 279 279 280 283 284 282 279 279 281 286 292 294 294 293 296 299 299 300 300 300 300 300 299 298 299 299 300 301 302 303 305 307 307 306 305 305 306 306 306 306 307 308
276 276 275 275 274 273 274 273 272 272 272 270 270 276 281 282 283 285 287 288 288 287 288 289 288 291 296 294 286 284 284 285 285 285 284 283 282 281 281 285 287 286 282 279 277 278 281 284 282 278 277 279 283 289 293 294 293 294 297 299 298 299 300 300 300 299 298 298 299 300 300 301 302 304 306 307 307 306 306 306 307 307 307 307 308 309
276 275 275 273 273 274 273 270 269 269 267 268 276 283 285 284 284 284 283 284 286 286 287 288 290 292 292 287 283 283 285 285 286 285 284 283 281 279 281 286 287 284 280 277 276 280 283 282 277 276 277 281 287 292 293 293 293 296 298 298 297 298 299 299 299 298 298 298 299 300 300 301 303 305 307 307 307 307 307 307 307 308 308 308 308 309
276 275 274 272 271 272 271 269 267 265 266 273 281 283 283 283 284 282 281 284 286 286 287 288 289 289 285 281 281 282 283 285 284 283 284 283 281 280 284 287 286 281 277 275 277 281 280 276 274 276 281 286 290 293 293 293 295 297 297 296 296 297 298 298 298 297 298 298 298 299 300 301 303 305 307 307 308 308 308 308 308 308 308 308 309 310
274 275 275 273 272 272 272 270 267 266 271 277 279 281 284 286 285 283 283 284 284 283 284 283 283 284 280 276 277 279 281 281 280 284 286 283 281 284 287 287 283 279 277 276 278 279 275 272 274 279 284 289 292 293 294 294 295 296 296 295 296 296 297 297 297 297 297 297 297 298 299 301 304 305 307 307 308 308 308 308 308 308 308 309 309 310
275 277 276 274 273 272 272 270 269 272 275 276 277 283 286 285 283 282 281 279 277 279 282 281 281 282 278 274 275 277 278 277 280 287 286 280 280 285 286 285 283 280 278 277 277 275 271 270 275 281 287 291 293 293 294 294 294 294 295 295 295 295 296 297 297 297 296 296 296 298 299 301 304 305 306 308 308 309 309 309 309 309 308 309 310 311
275 276 276 274 273 272 271 270 271 273 272 273 279 286 285 281 280 279 278 276 277 281 283 280 278 278 275 273 275 275 275 276 281 288 285 280 282 286 287 287 286 281 278 276 274 271 269 272 279 285 290 292 293 294 294 293 293 293 294 295 294 295 296 297 297 297 294 293 295 297 300 302 304 305 306 308 309 309 309 309 309 308 308 309 310 312
276 276 275 273 271 270 268 268 269 269 271 276 283 285 283 279 276 275 276 277 279 284 284 279 276 276 275 275 275 274 274 276 280 284 283 282 285 288 289 289 286 281 278 275 271 268 269 278 286 290 292 294 294 294 293 292 292 293 294 294 294 295 296 297 299 297 292 290 293 297 300 302 304 305 307 308 309 309 309 309 308 308 308 308 310 312
276 275 272 268 267 266 266 266 267 269 273 279 284 282 279 276 274 276 278 279 283 288 285 281 280 279 277 277 277 276 275 275 277 280 282 284 287 288 288 285 282 279 276 271 267 265 270 281 290 293 295 296 295 294 292 291 291 293 294 293 293 295 297 299 300 296 290 288 291 296 300 302 304 306 307 308 309 309 309 308 308 308 308 308 310 312
272 272 269 266 265 266 266 266 267 268 272 278 282 279 274 273 275 279 280 283 288 289 284 281 282 279 277 278 280 280 279 278 278 280 281 283 285 285 284 282 280 278 274 270 266 263 268 282 293 296 296 296 296 294 292 291 291 293 293 293 294 296 299 300 299 294 289 288 291 296 300 302 304 306 307 307 308 309 308 308 307 307 308 309 310 313
270 269 268 267 268 268 267 266 268 268 271 277 281 277 274 276 278 278 280 286 292 291 287 285 284 282 283 284 284 285 286 285 284 283 282 284 284 282 280 279 278 276 273 270 267 264 267 281 293 298 297 296 296 295 293 292 291 291 292 292 295 298 300 300 297 293 290 290 293 297 300 302 304 306 306 307 308 308 307 307 306 307 307 309 311 313
268 268 268 268 269 269 268 268 269 269 274 281 281 276 275 277 277 277 280 286 289 289 290 290 288 289 290 291 290 290 290 289 288 286 285 285 283 279 278 279 281 281 281 281 279 276 275 281 291 296 296 296 297 297 295 292 290 290 291 292 296 299 300 299 295 290 289 291 294 298 301 303 304 305 306 306 306 306 306 306 306 306 307 309 311 314
269 269 268 268 268 269 269 269 268 271 278 282 278 274 274 274 275 278 283 284 284 286 288 289 289 289 290 291 290 289 289 290 288 286 284 283 280 278 279 283 286 289 292 293 294 291 287 287 291 294 295 296 298 297 295 293 291 291 291 293 296 299 299 296 290 288 289 293 296 299 301 302 304 304 304 305 304 304 305 305 305 306 308 310 312 315
270 269 269 270 270 270 269 269 270 273 276 275 273 273 275 276 278 281 284 284 283 283 285 287 288 288 289 289 287 286 286 287 286 285 284 284 285 287 288 289 291 294 296 297 297 296 293 291 292 293 294 296 297 295 294 292 291 290 291 294 297 299 297 292 288 288 292 295 296 298 300 301 302 303 303 302 302 303 304 305 306 307 309 311 314 316
269 270 271 272 271 271 270 271 272 274 273 272 272 273 275 277 280 282 282 282 281 282 285 287 287 284 284 285 285 286 287 286 286 286 286 288 291 293 294 293 294 296 298 299 298 296 293 291 290 291 292 294 294 293 293 291 289 290 292 295 298 297 294 289 288 291 295 295 296 298 299 300 301 301 301 301 301 303 304 305 306 308 310 312 315 317
271 272 272 271 272 272 272 272 273 274 275 275 275 274 274 276 278 279 280 281 282 283 286 287 285 282 281 283 286 289 291 291 290 290 291 292 294 294 294 294 294 295 297 297 297 295 293 291 291 291 291 292 293 293 292 289 288 291 294 296 297 296 291 288 290 294 295 295 295 297 297 298 299 299 299 300 301 303 304 305 307 309 311 313 316 319
271 271 271 272 272 272 272 273 274 276 276 276 276 275 275 275 276 277 280 282 284 284 283 282 282 282 282 284 288 292 293 293 292 292 293 294 293 294 294 294 295 295 295 294 294 294 293 292 291 291 291 292 293 291 289 288 289 293 295 296 297 294 290 288 291 293 293 294 295 296 296 298 298 298 299 300 302 304 305 307 308 310 313 315 318 320
270 271 271 272 272 272 273 274 275 275 275 275 275 275 276 277 277 278 280 281 281 280 279 279 281 282 284 287 290 293 294 294 292 292 292 291 290 291 293 295 294 293 291 291 292 292 292 291 290 290 291 292 292 290 288 289 291 294 295 296 295 292 289 289 290 292 292 294 294 295 296 297 297 298 299 301 303 305 307 309 311 313 315 317 319 321
270 270 271 272 273 273 273 274 274 275 275 275 276 277 278 279 278 278 277 277 277 278 279 280 280 280 282 286 291 294 295 294 292 291 290 289 288 289 292 294 292 290 290 290 290 290 289 288 288 289 290 291 290 289 288 290 292 294 295 295 293 291 289 289 290 291 293 293 294 294 295 296 297 298 300 301 303 305 307 310 312 315 317 319 321 322
269 269 270 271 272 273 273 275 276 278 278 277 278 278 278 278 278 277 276 276 277 278 280 280 280 281 283 286 290 293 293 291 290 289 287 286 286 288 291 291 289 289 290 289 289 289 288 286 285 288 291 292 290 288 289 291 293 294 295 294 291 290 290 290 291 292 293 293 293 294 295 295 296 298 300 302 304 307 309 311 313 316 319 321 323 325
267 268 269 271 271 272 274 275 276 276 277 277 277 277 276 276 275 275 275 276 277 279 280 281 282 284 286 287 289 290 289 288 287 286 285 284 284 286 287 286 286 288 288 288 289 290 287 285 286 289 292 292 289 288 290 292 292 293 294 293 290 288 289 290 291 292 292 292 293 294 294 294 296 297 300 303 306 309 311 314 317 319 321 323 326 328
Height
5840 5839 5841 5841 5838 5837 5836 5836 5835 5833 5832 5831 5830 5829 5828 5827 5827 5826 5822 5820 5818 5812 5814 5814 5808 5809 5812 5814 5815 5812 5809 5810 5808 5806 5805 5803 5800 5797 5795 5793 5790 5787 5784 5781 5779 5778 5777 5776 5774 5772 5771 5769 5768 5766 5763 5762 5760 5759 5758 5756 5755 5754 5752 5750 5748 5747 5746 5744 5742 5741 5739 5737 5735 5732 5730 5728 5725 5723 5720 5718 5715 5713 5710 5708 5705 5703
5836 5836 5838 5836 5833 5833 5832 5831 5830 5829 5828 5826 5825 5823 5823 5823 5821 5820 5819 5816 5813 5808 5808 5808 5804 5805 5809 5809 5811 5807 5804 5806 5804 5801 5801 5799 5795 5792 5790 5788 5786 5782 5778 5776 5774 5773 5772 5771 5769 5768 5766 5765 5763 5761 5759 5757 5755 5754 5752 5751 5750 5748 5746 5745 5743 5742 5740 5739 5737 5735 5733 5731 5729 5726 5723 5720 5718 5715 5713 5710 5708 5705 5702 5700 5697 5694
5830 5832 5834 5831 5829 5829 5827 5826 5826 5824 5823 5821 5820 5818 5818 5818 5815 5814 5814 5811 5808 5803 5801 5801 5797 5800 5804 5804 5807 5805 5799 5800 5800 5797 5797 5794 5791 5788 5786 5784 5780 5777 5773 5770 5769 5767 5766 5766 5765 5763 5762 5760 5758 5756 5754 5752 5750 5749 5747 5746 5744 5742 5741 5739 5738 5737 5735 5734 5732 5730 5728 5725 5722 5720 5716 5713 5711 5708 5705 5702 5700 5697 5694 5691 5688 5685
5825 5828 5829 5827 5825 5824 5823 5822 5821 5820 5818 5816 5815 5814 5814 5813 5809 5807 5807 5805 5803 5798 5796 5794 5790 5791 5796 5798 5803 5803 5795 5793 5794 5794 5792 5790 5787 5785 5782 5779 5775 5772 5768 5766 5765 5763 5761 5761 5760 5759 5757 5755 5753 5751 5749 5746 5745 5743 5741 5740 5738 5737 5735 5734 5733 5731 5730 5728 5726 5724 5722 5719 5716 5713 5710 5706 5704 5701 5698 5694 5692 5689 5686 5682 5678 5674
5821 5823 5823 5822 5821 5819 5818 5817 5817 5815 5813 5811 5810 5810 5809 5807 5805 5802 5800 5798 5796 5794 5791 5789 5783 5782 5785 5789 5797 5800 5795 5787 5786 5788 5788 5784 5783 5782 5778 5775 5772 5767 5764 5762 5761 5759 5757 5756 5755 5754 5752 5750 5747 5745 5743 5741 5739 5737 5736 5734 5733 5731 5730 5729 5727 5726 5724 5722 5720 5718 5715 5713 5709 5706 5704 5700 5697 5694 5691 5687 5684 5680 5677 5673 5668 5665
5817 5818 5817 5817 5815 5814 5813 5812 5812 5810 5807 5805 5805 5806 5804 5802 5800 5797 5795 5791 5788 5787 5786 5786 5780 5773 5771 5777 5786 5791 5790 5786 5781 5781 5781 5779 5778 5778 5775 5771 5768 5763 5759 5758 5756 5754 5752 5751 5750 5748 5746 5744 5741 5739 5736 5734 5733 5731 5729 5728 5727 5726 5724 5723 5722 5720 5718 5716 5714 5711 5709 5706 5703 5700 5697 5694 5691 5688 5685 5681 5677 5672 5668 5664 5660 5656
5813 5814 5812 5811 5810 5808 5808 5808 5808 5805 5801 5799 5801 5802 5799 5797 5795 5792 5790 5787 5783 5779 5778 5782 5781 5768 5759 5767 5778 5781 5782 5783 5779 5775 5773 5773 5773 5772 5770 5766 5762 5758 5754 5752 5750 5748 5747 5746 5744 5742 5740 5737 5734 5732 5730 5728 5726 5725 5723 5722 5721 5720 5718 5717 5715 5714 5712 5710 5707 5704 5702 5699 5696 5693 5690 5687 5684 5681 5678 5674 5669 5664 5659 5655 5651 5647
5808 5808 5807 5806 5804 5803 5803 5803 5802 5799 5796 5794 5795 5795 5794 5793 5790 5787 5785 5782 5779 5774 5770 5777 5781 5764 5749 5757 5770 5773 5775 5778 5777 5772 5766 5765 5766 5765 5763 5759 5756 5751 5747 5745 5743 5742 5741 5739 5738 5736 5733 5730 5727 5725 5723 5722 5720 5719 5717 5716 5715 5714 5712 5711 5709 5707 5705 5703 5700 5697 5695 5692 5689 5687 5683 5680 5677 5674 5671 5666 5661 5657 5651 5646 5641 5638
5802 5802 5802 5801 5799 5798 5798 5797 5795 5794 5791 5789 5790 5789 5787 5787 5784 5781 5779 5776 5775 5768 5763 5773 5778 5762 5746 5749 5760 5765 5768 5771 5771 5768 5763 5759 5758 5757 5755 5752 5748 5744 5740 5738 5736 5734 5734 5732 5731 5729 5726 5724 5721 5719 5718 5716 5714 5713 5712 5710 5709 5708 5706 5704 5702 5700 5698 5696 5693 5690 5688 5685 5682 5680 5677 5674 5671 5667 5663 5659 5654 5649 5643 5638 5633 5629
5797 5796 5796 5794 5794 5794 5793 5791 5790 5788 5786 5785 5785 5783 5781 5780 5777 5775 5772 5771 5770 5761 5760 5769 5770 5759 5744 5742 5754 5760 5761 5763 5763 5761 5758 5755 5753 5750 5749 5746 5741 5738 5735 5731 5728 5727 5726 5725 5724 5722 5720 5718 5716 5714 5712 5710 5709 5707 5706 5704 5703 5702 5700 5698 5696 5694 5692 5689 5686 5683 5681 5678 5675 5673 5670 5667 5663 5659 5655 5651 5646 5641 5636 5630 5625 5621
5792 5790 5790 5789 5789 5788 5787 5786 5784 5783 5782 5781 5780 5777 5776 5773 5770 5768 5765 5766 5763 5754 5757 5763 5762 5756 5740 5734 5748 5754 5754 5757 5755 5754 5753 5750 5747 5744 5742 5739 5735 5732 5729 5724 5721 5720 5719 5718 5717 5715 5713 5712 5710 5708 5706 5704 5703 5701 5699 5698 5696 5695 5693 5691 5689 5687 5684 5682 5679 5676 5673 5671 5668 5665 5663 5659 5655 5651 5647 5642 5638 5633 5627 5622 5617 5613
5786 5785 5784 5784 5783 5783 5782 5780 5779 5778 5777 5775 5774 5772 5770 5766 5763 5761 5759 5760 5755 5749 5753 5756 5753 5749 5735 5732 5745 5747 5746 5748 5747 5748 5747 5744 5742 5739 5737 5733 5729 5727 5723 5718 5714 5713 5713 5712 5711 5709 5707 5706 5704 5702 5700 5698 5697 5695 5693 5692 5690 5689 5687 5684 5682 5680 5677 5674 5671 5669 5666 5664 5661 5658 5655 5651 5647 5643 5638 5634 5629 5625 5619 5614 5609 5604
5779 5779 5778 5778 5778 5778 5776 5775 5773 5772 5771 5769 5768 5766 5763 5759 5756 5754 5753 5752 5748 5745 5748 5748 5745 5738 5729 5733 5741 5740 5741 5740 5738 5742 5741 5738 5736 5733 5731 5726 5723 5721 5716 5712 5709 5707 5707 5706 5705 5703 5701 5700 5698 5696 5694 5692 5690 5688 5687 5685 5683 5682 5680 5678 5675 5672 5669 5666 5663 5661 5658 5656 5653 5650 5647 5643 5639 5634 5630 5626 5621 5617 5612 5607 5602 5596
5771 5772 5772 5772 5772 5772 5769 5769 5767 5765 5764 5762 5761 5759 5756 5753 5750 5748 5747 5744 5740 5740 5742 5740 5736 5729 5726 5731 5733 5733 5737 5734 5731 5736 5735 5731 5731 5728 5725 5720 5716 5715 5710 5706 5704 5702 5701 5700 5698 5696 5695 5693 5691 5690 5688 5686 5684 5682 5680 5678 5676 5675 5673 5671 5668 5664 5661 5658 5655 5653 5650 5648 5645 5641 5638 5634 5630 5626 5621 5617 5612 5608 5604 5599 5595 5589
5763 5763 5765 5765 5765 5764 5762 5762 5760 5759 5757 5755 5754 5752 5749 5749 5746 5742 5741 5738 5733 5735 5735 5731 5727 5724 5723 5725 5722 5724 5732 5728 5725 5729 5728 5725 5725 5722 5718 5713 5710 5708 5703 5699 5698 5696 5694 5693 5691 5690 5688 5687 5685 5683 5682 5680 5678 5676 5673 5671 5669 5668 5666 5663 5660 5657 5654 5650 5647 5645 5642 5640 5637 5633 5629 5624 5620 5617 5612 5608 5603 5598 5594 5590 5585 5580
5755 5754 5757 5756 5755 5756 5755 5755 5755 5752 5750 5748 5747 5745 5744 5745 5742 5736 5733 5733 5730 5728 5728 5725 5720 5720 5721 5718 5714 5720 5727 5723 5719 5722 5721 5718 5718 5715 5710 5706 5703 5700 5695 5692 5691 5689 5687 5685 5684 5683 5682 5680 5679 5677 5675 5673 5671 5669 5667 5664 5662 5661 5659 5656 5653 5649 5646 5642 5639 5637 5634 5631 5628 5624 5620 5616 5611 5607 5603 5598 5594 5589 5584 5579 5575 5569
5748 5748 5750 5748 5746 5747 5747 5748 5748 5745 5742 5741 5741 5740 5739 5738 5735 5729 5726 5727 5726 5720 5721 5721 5714 5715 5717 5709 5708 5718 5723 5718 5714 5715 5714 5711 5710 5707 5703 5700 5697 5692 5688 5686 5684 5682 5681 5679 5678 5677 5675 5674 5672 5670 5669 5666 5665 5662 5660 5658 5655 5653 5651 5648 5645 5641 5637 5634 5631 5629 5626 5622 5619 5615 5611 5607 5602 5598 5593 5588 5584 5580 5574 5568 5564 5559
5742 5740 5742 5741 5738 5738 5740 5739 5739 5737 5735 5734 5735 5735 5733 5729 5726 5724 5719 5719 5719 5712 5712 5716 5711 5708 5707 5701 5703 5714 5716 5711 5708 5706 5705 5704 5702 5699 5696 5693 5689 5684 5681 5680 5677 5675 5674 5673 5671 5670 5668 5667 5665 5663 5662 5659 5657 5655 5653 5651 5648 5646 5643 5640 5637 5633 5629 5627 5624 5621 5618 5614 5610 5607 5602 5598 5593 5589 5584 5579 5574 5569 5564 5558 5553 5549
5734 5731 5733 5734 5730 5730 5732 5730 5728 5728 5728 5727 5726 5726 5723 5719 5718 5718 5713 5711 5710 5703 5701 5708 5708 5700 5696 5698 5703 5709 5709 5704 5701 5698 5696 5696 5694 5690 5688 5684 5679 5675 5673 5671 5669 5667 5667 5665 5664 5663 5661 5660 5658 5656 5654 5652 5650 5648 5646 5644 5641 5638 5636 5633 5629 5625 5622 5619 5616 5613 5609 5606 5602 5597 5593 5588 5584 5580 5575 5570 5565 5559 5554 5549 5544 5539
5726 5721 5722 5725 5723 5723 5723 5720 5720 5722 5720 5717 5716 5715 5713 5711 5709 5709 5707 5703 5700 5696 5692 5697 5700 5692 5688 5696 5702 5702 5703 5700 5695 5691 5688 5688 5687 5683 5680 5675 5670 5667 5665 5663 5662 5661 5660 5658 5656 5655 5653 5652 5651 5648 5647 5645 5643 5641 5639 5636 5634 5631 5628 5625 5621 5617 5614 5611 5608 5605 5601 5597 5593 5588 5584 5579 5575 5571 5566 5560 5555 5550 5545 5539 5534 5530
5716 5711 5711 5715 5715 5713 5713 5713 5714 5713 5710 5707 5706 5706 5705 5704 5702 5698 5697 5695 5692 5689 5686 5684 5685 5684 5685 5692 5696 5695 5696 5695 5689 5684 5681 5682 5680 5676 5671 5667 5663 5661 5659 5656 5656 5654 5653 5651 5649 5648 5647 5645 5643 5641 5639 5638 5636 5634 5631 5628 5626 5623 5620 5617 5613 5610 5607 5604 5600 5597 5592 5588 5584 5580 5575 5571 5566 5561 5556 5551 5545 5540 5535 5530 5525 5520
5706 5702 5702 5704 5705 5704 5705 5706 5703 5700 5699 5698 5697 5698 5698 5698 5695 5688 5686 5689 5686 5681 5678 5672 5667 5673 5683 5688 5690 5689 5687 5686 5684 5678 5675 5674 5671 5667 5663 5659 5657 5655 5652 5650 5650 5648 5646 5644 5642 5641 5639 5637 5635 5634 5632 5630 5628 5626 5623 5621 5618 5616 5612 5609 5605 5602 5599 5596 5592 5588 5584 5579 5575 5571 5566 5562 5557 5552 5546 5541 5535 5530 5526 5520 5515 5509
5696 5692 5691 5693 5695 5697 5697 5695 5692 5689 5688 5688 5688 5691 5691 5689 5687 5682 5678 5680 5678 5671 5669 5661 5652 5661 5680 5685 5683 5682 5679 5678 5678 5673 5669 5667 5662 5658 5655 5652 5650 5647 5645 5644 5643 5642 5639 5637 5636 5634 5632 5630 5628 5627 5625 5623 5621 5618 5616 5613 5610 5608 5604 5601 5597 5594 5590 5587 5583 5579 5575 5570 5566 5562 5557 5553 5547 5542 5537 5531 5526 5521 5516 5511 5505 5500
5685 5681 5681 5681 5684 5687 5687 5684 5682 5679 5679 5680 5682 5684 5681 5679 5679 5675 5669 5668 5665 5661 5658 5650 5641 5652 5674 5679 5675 5674 5672 5671 5671 5667 5662 5658 5654 5652 5648 5646 5643 5640 5638 5638 5636 5634 5632 5631 5630 5627 5624 5623 5621 5619 5617 5615 5613 5610 5608 5605 5602 5599 5596 5593 5589 5586 5582 5578 5574 5570 5566 5562 5557 5553 5548 5544 5538 5533 5527 5522 5516 5511 5506 5501 5495 5490
5673 5670 5670 5670 5671 5674 5675 5674 5673 5672 5674 5674 5675 5675 5672 5671 5670 5664 5661 5657 5650 5648 5648 5641 5634 5647 5666 5669 5665 5666 5666 5665 5663 5658 5654 5650 5647 5645 5642 5638 5636 5633 5632 5631 5629 5627 5626 5624 5622 5619 5617 5616 5614 5612 5610 5607 5605 5603 5600 5597 5594 5591 5588 5585 5581 5577 5574 5569 5565 5562 5558 5553 5549 5544 5539 5534 5529 5524 5518 5512 5507 5501 5496 5491 5485 5480
5663 5661 5661 5660 5658 5660 5663 5665 5666 5666 5667 5665 5666 5666 5664 5665 5662 5656 5654 5647 5636 5634 5637 5633 5630 5640 5656 5659 5656 5658 5659 5657 5655 5649 5644 5642 5639 5637 5635 5631 5629 5626 5625 5623 5621 5619 5619 5617 5614 5611 5609 5608 5606 5604 5602 5600 5597 5595 5592 5589 5587 5584 5580 5577 5573 5569 5565 5561 5557 5553 5549 5544 5540 5535 5531 5525 5520 5515 5509 5503 5498 5492 5486 5481 5476 5470
5652 5650 5652 5651 5648 5649 5653 5658 5660 5657 5654 5654 5656 5658 5658 5657 5655 5651 5645 5635 5629 5625 5624 5630 5632 5630 5640 5649 5649 5651 5651 5646 5644 5640 5635 5632 5630 5628 5627 5624 5621 5619 5617 5616 5614 5613 5611 5609 5606 5604 5602 5601 5599 5597 5595 5592 5589 5587 5584 5581 5579 5576 5572 5568 5565 5561 5557 5553 5549 5544 5540 5536 5531 5527 5522 5516 5511 5506 5500 5495 5489 5483 5477 5472 5466 5461
5640 5638 5642 5643 5640 5641 5645 5650 5650 5645 5643 5646 5647 5648 5652 5651 5647 5643 5634 5628 5627 5618 5612 5626 5632 5620 5624 5639 5642 5644 5644 5637 5633 5631 5626 5623 5622 5620 5618 5616 5614 5612 5610 5608 5607 5605 5603 5600 5598 5596 5595 5594 5592 5589 5586 5584 5581 5579 5576 5573 5570 5567 5564 5560 5556 5553 5549 5545 5540 5536 5531 5527 5523 5518 5513 5508 5502 5497 5491 5486 5480 5474 5468 5462 5457 5451
5629 5626 5635 5635 5630 5632 5637 5640 5640 5634 5633 5637 5637 5638 5645 5644 5637 5633 5628 5626 5623 5609 5603 5618 5623 5612 5617 5629 5632 5636 5635 5626 5622 5622 5619 5616 5615 5612 5608 5607 5606 5604 5602 5601 5599 5597 5595 5592 5590 5589 5588 5586 5584 5581 5578 5576 5573 5570 5567 5565 5562 5558 5555 5552 5548 5544 5540 5536 5532 5528 5523 5519 5514 5509 5504 5499 5494 5488 5483 5477 5471 5465 5458 5453 5447 5441
5620 5619 5628 5628 5620 5621 5627 5631 5629 5623 5622 5626 5627 5631 5636 5635 5629 5624 5623 5625 5621 5605 5599 5607 5606 5605 5615 5622 5623 5627 5624 5614 5612 5613 5612 5609 5606 5602 5599 5599 5598 5597 5595 5594 5591 5589 5586 5584 5583 5582 5580 5578 5575 5572 5570 5567 5565 5562 5559 5557 5553 5550 5547 5543 5539 5536 5532 5528 5524 5519 5515 5510 5506 5500 5495 5491 5485 5480 5474 5468 5462 5456 5449 5443 5437 5431
5613 5612 5619 5619 5608 5607 5619 5624 5617 5612 5611 5611 5615 5624 5629 5628 5624 5620 5618 5620 5615 5602 5598 5598 5592 5595 5611 5617 5614 5614 5611 5605 5603 5603 5603 5602 5598 5593 5590 5590 5590 5588 5588 5586 5582 5579 5578 5576 5576 5574 5572 5569 5566 5564 5562 5559 5556 5554 5551 5548 5544 5541 5538 5534 5531 5527 5523 5519 5515 5511 5507 5502 5497 5492 5487 5482 5477 5471 5466 5460 5454 5448 5441 5435 5428 5421
5607 5605 5609 5609 5595 5596 5613 5615 5604 5602 5600 5595 5603 5617 5623 5622 5620 5616 5612 5608 5605 5599 5596 5592 5584 5588 5603 5608 5602 5600 5599 5596 5594 5594 5594 5593 5590 5584 5581 5582 5582 5580 5579 5577 5573 5571 5570 5569 5568 5566 5563 5560 5558 5556 5554 5551 5548 5546 5543 5539 5536 5533 5529 5525 5522 5518 5514 5511 5506 5502 5498 5493 5488 5483 5479 5474 5469 5463 5457 5451 5445 5439 5433 5426 5419 5412
5601 5597 5599 5597 5584 5586 5602 5602 5593 5591 5584 5582 5599 5612 5615 5615 5612 5606 5601 5597 5596 5593 5589 5584 5582 5587 5595 5595 5591 5589 5587 5584 5584 5585 5584 5581 5578 5575 5573 5574 5574 5572 5570 5566 5563 5563 5562 5561 5560 5556 5554 5552 5550 5548 5545 5542 5540 5537 5534 5530 5527 5524 5520 5516 5513 5509 5505 5502 5498 5494 5489 5484 5480 5475 5470 5466 5460 5455 5449 5443 5437 5431 5425 5418 5411 5404
5593 5589 5588 5587 5577 5574 5586 5590 5582 5573 5569 5581 5599 5604 5603 5606 5602 5591 5588 5590 5590 5586 5581 5578 5579 5583 5586 5585 5582 5578 5577 5575 5574 5575 5574 5569 5565 5565 5568 5568 5565 5562 5559 5556 5555 5555 5554 5552 5550 5547 5545 5544 5541 5539 5537 5534 5532 5528 5525 5522 5518 5515 5511 5507 5504 5500 5496 5493 5489 5485 5480 5476 5471 5467 5462 5457 5452 5447 5441 5435 5429 5423 5417 5410 5403 5397
5585 5582 5579 5578 5572 5566 5573 5576 5564 5555 5566 5584 5593 5594 5596 5595 5589 5579 5575 5580 5582 5579 5574 5571 5572 5577 5578 5576 5573 5569 5568 5567 5565 5567 5569 5560 5554 5557 5560 5559 5556 5552 5550 5549 5548 5547 5545 5543 5541 5539 5537 5535 5533 5531 5528 5526 5523 5519 5516 5513 5509 5506 5502 5499 5495 5491 5488 5484 5480 5476 5471 5467 5463 5458 5454 5449 5444 5438 5433 5427 5421 5416 5409 5402 5395 5389
5576 5574 5571 5569 5565 5560 5559 5558 5549 5548 5563 5576 5582 5591 5593 5583 5576 5570 5562 5566 5574 5573 5568 5564 5565 5569 5568 5564 5564 5562 5557 5553 5554 5563 5565 5552 5545 5549 5549 5548 5547 5544 5543 5542 5540 5538 5537 5534 5532 5530 5528 5526 5524 5522 5520 5517 5514 5510 5507 5504 5500 5497 5494 5490 5486 5482 5479 5475 5471 5467 5463 5458 5454 5449 5445 5440 5435 5429 5424 5418 5413 5407 5402 5395 5388 5381
5566 5563 5562 5558 5554 5552 5548 5544 5542 5541 5549 5563 5578 5589 5585 5572 5568 5562 5549 5551 5567 5572 5565 5558 5556 5559 5557 5553 5554 5552 5546 5540 5542 5556 5560 5546 5538 5541 5540 5539 5539 5536 5535 5534 5531 5530 5528 5525 5524 5522 5519 5518 5516 5514 5511 5508 5505 5502 5498 5495 5492 5488 5485 5481 5477 5473 5470 5466 5462 5458 5454 5449 5445 5440 5435 5431 5426 5421 5416 5410 5405 5399 5394 5388 5382 5375
5557 5554 5553 5546 5542 5544 5540 5533 5532 5528 5533 5555 5575 5581 5576 5564 5561 5556 5539 5539 5563 5574 5563 5552 5549 5549 5547 5545 5544 5541 5537 5532 5532 5545 5551 5539 5531 5532 5532 5530 5529 5526 5526 5525 5522 5521 5519 5517 5515 5513 5511 5510 5508 5505 5502 5499 5496 5493 5489 5486 5483 5479 5476 5472 5468 5464 5460 5456 5452 5448 5444 5440 5436 5431 5426 5421 5417 5413 5407 5402 5397 5392 5387 5381 5376 5369
5547 5544 5544 5536 5529 5532 5530 5523 5520 5517 5525 5549 5567 5571 5564 5554 5553 5549 5529 5531 5561 5572 5556 5546 5544 5543 5541 5538 5535 5532 5529 5525 5526 5535 5538 5531 5525 5524 5523 5521 5519 5518 5517 5515 5513 5512 5510 5508 5507 5505 5503 5501 5499 5496 5493 5490 5487 5484 5481 5478 5474 5470 5467 5463 5459 5455 5450 5447 5443 5439 5435 5431 5427 5423 5417 5412 5408 5404 5400 5395 5389 5384 5379 5374 5369 5363
5537 5535 5534 5527 5519 5523 5521 5512 5509 5510 5519 5541 5557 5559 5552 5544 5544 5537 5521 5532 5559 5560 5545 5542 5541 5537 5536 5532 5526 5523 5521 5518 5520 5526 5527 5524 5520 5517 5514 5513 5511 5510 5508 5506 5504 5502 5500 5499 5498 5496 5494 5492 5490 5487 5485 5481 5479 5475 5472 5469 5465 5461 5458 5454 5450 5446 5441 5437 5434 5430 5426 5422 5418 5414 5409 5404 5399 5395 5391 5387 5382 5377 5372 5367 5361 5356
5526 5524 5523 5517 5514 5516 5511 5502 5499 5501 5514 5537 5549 5546 5539 5534 5529 5523 5521 5537 5550 5542 5535 5538 5534 5531 5530 5524 5517 5516 5514 5512 5513 5516 5517 5516 5513 5509 5507 5506 5504 5503 5501 5499 5497 5494 5492 5490 5489 5487 5485 5483 5481 5479 5476 5472 5470 5467 5463 5460 5456 5452 5449 5445 5441 5437 5433 5429 5425 5421 5418 5414 5409 5405 5401 5396 5391 5387 5383 5379 5375 5370 5365 5360 5355 5349
5515 5512 5511 5508 5507 5506 5502 5497 5490 5487 5507 5536 5540 5529 5523 5519 5514 5517 5526 5536 5536 5528 5527 5528 5525 5524 5522 5515 5510 5508 5506 5506 5506 5506 5507 5507 5505 5503 5501 5499 5498 5497 5495 5493 5490 5488 5486 5483 5481 5479 5476 5474 5472 5470 5467 5464 5461 5458 5454 5451 5447 5444 5440 5437 5433 5429 5424 5420 5417 5413 5410 5405 5401 5396 5392 5388 5384 5379 5375 5370 5366 5362 5357 5353 5348 5343
5503 5502 5498 5496 5500 5498 5492 5486 5479 5480 5506 5531 5525 5510 5507 5508 5511 5517 5521 5522 5523 5522 5519 5516 5515 5515 5511 5506 5503 5499 5497 5499 5499 5497 5498 5497 5496 5496 5494 5491 5490 5488 5486 5485 5482 5480 5478 5476 5473 5470 5467 5465 5463 5460 5458 5454 5451 5448 5445 5442 5439 5435 5431 5428 5424 5419 5415 5412 5408 5405 5401 5397 5393 5389 5384 5380 5376 5371 5367 5362 5358 5354 5350 5346 5341 5336
5483 5487 5487 5487 5491 5488 5477 5471 5472 5482 5504 5515 5506 5499 5500 5501 5508 5513 5509 5507 5513 5515 5510 5507 5507 5506 5501 5497 5494 5490 5490 5492 5490 5489 5489 5487 5487 5486 5484 5482 5480 5477 5476 5475 5472 5471 5469 5466 5463 5461 5458 5456 5454 5451 5448 5445 5441 5439 5436 5432 5430 5426 5422 5419 5414 5410 5407 5403 5400 5397 5393 5389 5385 5381 5377 5373 5368 5363 5359 5354 5350 5346 5342 5338 5334 5329
5466 5475 5481 5477 5474 5471 5465 5464 5470 5479 5490 5493 5492 5495 5496 5493 5496 5501 5499 5498 5501 5503 5501 5498 5496 5496 5493 5487 5485 5484 5483 5483 5482 5480 5480 5479 5477 5476 5473 5471 5469 5467 5465 5463 5461 5460 5458 5455 5454 5452 5449 5447 5444 5441 5439 5436 5432 5430 5427 5423 5420 5417 5413 5409 5405 5401 5398 5395 5391 5388 5385 5381 5378 5374 5370 5365 5361 5356 5352 5347 5343 5339 5334 5330 5326 5322
5458 5468 5470 5462 5458 5457 5453 5456 5465 5471 5476 5481 5481 5484 5487 5485 5485 5488 5489 5488 5490 5492 5490 5486 5484 5485 5482 5476 5476 5476 5475 5475 5473 5470 5469 5469 5467 5465 5463 5461 5459 5457 5455 5453 5451 5449 5447 5445 5444 5442 5439 5437 5434 5431 5429 5426 5424 5421 5418 5414 5411 5407 5404 5400 5396 5393 5390 5386 5383 5380 5376 5373 5370 5366 5362 5358 5353 5349 5345 5340 5336 5332 5328 5323 5319 5314
5450 5456 5453 5448 5449 5445 5438 5444 5459 5463 5465 5470 5469 5468 5473 5476 5476 5478 5478 5477 5478 5479 5476 5473 5472 5472 5469 5467 5467 5466 5465 5466 5464 5461 5460 5459 5456 5455 5454 5451 5449 5448 5445 5443 5442 5440 5438 5437 5434 5432 5430 5427 5424 5422 5420 5417 5415 5412 5408 5405 5402 5398 5394 5391 5388 5385 5382 5378 5375 5372 5368 5365 5362 5359 5355 5351 5347 5342 5337 5332 5328 5325 5321 5316 5312 5307
5440 5440 5437 5435 5436 5432 5428 5438 5450 5450 5450 5456 5457 5455 5461 5465 5466 5467 5466 5463 5463 5463 5461 5461 5461 5460 5459 5458 5456 5455 5456 5456 5454 5452 5451 5448 5446 5445 5444 5441 5440 5438 5435 5434 5432 5430 5429 5427 5424 5422 5420 5417 5415 5413 5411 5408 5406 5402 5399 5396 5393 5389 5386 5383 5380 5377 5374 5371 5367 5364 5361 5358 5354 5351 5347 5344 5341 5336 5330 5325 5320 5316 5313 5309 5305 5301
5430 5426 5424 5424 5421 5418 5419 5430 5438 5436 5436 5443 5445 5445 5449 5451 5452 5452 5451 5449 5449 5449 5449 5450 5449 5448 5448 5448 5446 5446 5445 5444 5443 5442 5440 5439 5437 5436 5434 5432 5429 5428 5426 5426 5423 5421 5420 5418 5415 5413 5411 5408 5407 5404 5401 5399 5396 5393 5390 5388 5384 5381 5378 5374 5372 5369 5366 5363 5360 5357 5354 5351 5347 5344 5340 5337 5334 5330 5325 5321 5315 5309 5305 5300 5296 5292
5415 5413 5415 5416 5408 5404 5410 5421 5427 5423 5421 5427 5433 5435 5436 5438 5438 5437 5437 5437 5437 5437 5439 5438 5436 5437 5438 5438 5438 5436 5433 5433 5433 5430 5429 5430 5429 5426 5425 5423 5420 5418 5418 5417 5414 5411 5410 5407 5405 5404 5401 5399 5397 5395 5392 5390 5387 5384 5382 5379 5375 5373 5369 5366 5363 5361 5358 5355 5352 5349 5347 5344 5340 5337 5334 5330 5326 5322 5317 5314 5310 5304 5299 5293 5287 5282
5403 5402 5406 5405 5396 5395 5404 5412 5414 5410 5406 5411 5419 5422 5424 5426 5425 5423 5424 5425 5425 5425 5426 5424 5423 5425 5426 5427 5428 5425 5422 5422 5422 5418 5418 5419 5418 5417 5415 5413 5411 5411 5409 5407 5405 5402 5400 5398 5396 5394 5392 5390 5388 5385 5383 5381 5378 5376 5374 5370 5367 5364 5361 5357 5355 5352 5349 5347 5344 5342 5339 5336 5334 5331 5328 5325 5321 5316 5310 5305 5300 5296 5292 5287 5281 5275